| time (UTC) | temp F | wind direction | speed MPH | gust MPH | rain 1hr in | rain 24hr in | rain mn in | humidity % | barometer mb |
| 20260904225030 | 65 | 275 | 26.0 | 33.0 | 0.00 | 0.00 | 0.00 | 75 | 1014.1 |
| 20260904224030 | 65 | 263 | 26.0 | 31.0 | 0.00 | 0.00 | 0.00 | 76 | 1014.2 |
| 20260904223030 | 65 | 252 | 27.0 | 33.0 | 0.00 | 0.00 | 0.00 | 75 | 1014.0 |
| 20260904222030 | 65 | 256 | 26.0 | 33.0 | 0.00 | 0.00 | 0.00 | 76 | 1013.9 |
| 20260904221030 | 65 | 259 | 29.0 | 35.0 | 0.00 | 0.00 | 0.00 | 75 | 1013.8 |
| 20260904220030 | 65 | 254 | 28.0 | 37.0 | 0.00 | 0.00 | 0.02 | 75 | 1013.8 |
| 20260904215030 | 65 | 257 | 28.0 | 35.0 | 0.00 | 0.00 | 0.02 | 76 | 1013.6 |
| 20260904214030 | 65 | 253 | 28.0 | 37.0 | 0.00 | 0.00 | 0.02 | 74 | 1013.5 |
| 20260904213030 | 65 | 253 | 29.0 | 36.0 | 0.00 | 0.00 | 0.02 | 75 | 1013.5 |
| 20260904212029 | 65 | 263 | 29.0 | 37.0 | 0.00 | 0.00 | 0.02 | 76 | 1013.3 |
| 20260904211030 | 65 | 258 | 27.0 | 36.0 | 0.00 | 0.00 | 0.02 | 74 | 1013.3 |
| 20260904210030 | 65 | 254 | 28.0 | 36.0 | 0.00 | 0.00 | 0.02 | 75 | 1013.3 |
| 20260904205030 | 65 | 259 | 27.0 | 35.0 | 0.00 | 0.00 | 0.02 | 74 | 1013.2 |
| 20260904204030 | 65 | 239 | 22.0 | 30.0 | 0.00 | 0.00 | 0.02 | 77 | 1013.4 |
| 20260904203030 | 65 | 254 | 24.0 | 34.0 | 0.00 | 0.00 | 0.02 | 75 | 1013.3 |
| 20260904202029 | 65 | 253 | 24.0 | 32.0 | 0.00 | 0.00 | 0.02 | 77 | 1013.3 |
| 20260904201029 | 65 | 241 | 24.0 | 30.0 | 0.00 | 0.00 | 0.02 | 76 | 1013.3 |
| 20260904200030 | 65 | 255 | 26.0 | 33.0 | 0.00 | 0.00 | 0.02 | 75 | 1013.2 |
| 20260904195030 | 65 | 249 | 25.0 | 33.0 | 0.00 | 0.00 | 0.02 | 76 | 1013.2 |
| 20260904194030 | 65 | 253 | 26.0 | 33.0 | 0.00 | 0.00 | 0.02 | 75 | 1013.0 |
| 20260904193030 | 65 | 237 | 26.0 | 35.0 | 0.00 | 0.00 | 0.02 | 77 | 1012.9 |
| 20260904192030 | 65 | 244 | 26.0 | 34.0 | 0.00 | 0.00 | 0.02 | 76 | 1012.9 |
| 20260904191030 | 65 | 241 | 24.0 | 34.0 | 0.00 | 0.00 | 0.02 | 76 | 1012.8 |
| 20260904190030 | 65 | 247 | 24.0 | 31.0 | 0.00 | 0.00 | 0.02 | 75 | 1012.7 |
| 20260904185030 | 65 | 265 | 23.0 | 34.0 | 0.00 | 0.00 | 0.02 | 74 | 1012.6 |
| 20260904184030 | 65 | 259 | 29.0 | 37.0 | 0.00 | 0.00 | 0.02 | 72 | 1012.4 |
| 20260904183030 | 65 | 262 | 28.0 | 37.0 | 0.00 | 0.00 | 0.02 | 75 | 1012.3 |
| 20260904182030 | 65 | 256 | 28.0 | 37.0 | 0.00 | 0.00 | 0.02 | 76 | 1012.2 |
| 20260904181030 | 65 | 262 | 29.0 | 36.0 | 0.00 | 0.00 | 0.02 | 77 | 1012.1 |
| 20260904180030 | 65 | 263 | 30.0 | 36.0 | 0.00 | 0.00 | 0.02 | 77 | 1011.9 |
| 20260904175030 | 65 | 270 | 29.0 | 36.0 | 0.00 | 0.00 | 0.02 | 77 | 1011.7 |
| 20260904174030 | 65 | 285 | 29.0 | 35.0 | 0.00 | 0.00 | 0.02 | 76 | 1011.5 |
| 20260904173030 | 65 | 284 | 31.0 | 38.0 | 0.00 | 0.00 | 0.02 | 74 | 1011.5 |
| 20260904172030 | 65 | 272 | 30.0 | 36.0 | 0.00 | 0.00 | 0.02 | 74 | 1011.3 |
| 20260904171030 | 65 | 274 | 33.0 | 41.0 | 0.00 | 0.00 | 0.02 | 78 | 1011.1 |
| 20260904170030 | 65 | 267 | 33.0 | 39.0 | 0.00 | 0.00 | 0.02 | 78 | 1011.1 |
| 20260904165030 | 65 | 268 | 30.0 | 41.0 | 0.00 | 0.00 | 0.02 | 79 | 1011.1 |
| 20260904164030 | 65 | 268 | 32.0 | 38.0 | 0.00 | 0.00 | 0.02 | 79 | 1011.0 |
| 20260904163029 | 64 | 282 | 31.0 | 40.0 | 0.00 | 0.00 | 0.02 | 83 | 1010.9 |
| 20260904162030 | 66 | 255 | 27.0 | 36.0 | 0.00 | 0.00 | 0.02 | 82 | 1010.9 |
| 20260904161030 | 66 | 251 | 26.0 | 33.0 | 0.00 | 0.00 | 0.02 | 82 | 1010.8 |
| 20260904160029 | 66 | 249 | 28.0 | 36.0 | 0.00 | 0.00 | 0.02 | 82 | 1010.6 |
| 20260904155030 | 66 | 256 | 28.0 | 36.0 | 0.00 | 0.00 | 0.02 | 82 | 1010.7 |
| 20260904154029 | 66 | 255 | 32.0 | 41.0 | 0.00 | 0.00 | 0.02 | 82 | 1010.3 |
| 20260904153029 | 66 | 253 | 34.0 | 42.0 | 0.00 | 0.00 | 0.02 | 81 | 1010.2 |
| 20260904152030 | 66 | 255 | 32.0 | 43.0 | 0.00 | 0.00 | 0.02 | 82 | 1010.3 |
| 20260904151030 | 66 | 263 | 30.0 | 40.0 | 0.00 | 0.00 | 0.02 | 83 | 1010.3 |
| 20260904150030 | 66 | 258 | 28.0 | 39.0 | 0.00 | 0.00 | 0.02 | 84 | 1010.2 |
| 20260904145030 | 66 | 251 | 33.0 | 43.0 | 0.00 | 0.00 | 0.02 | 84 | 1010.0 |
| 20260904144029 | 66 | 257 | 30.0 | 39.0 | 0.00 | 0.00 | 0.02 | 85 | 1009.9 |
| 20260904143029 | 66 | 264 | 31.0 | 39.0 | 0.00 | 0.00 | 0.02 | 85 | 1009.7 |
| 20260904142030 | 66 | 242 | 27.0 | 37.0 | 0.00 | 0.00 | 0.02 | 88 | 1009.8 |
| 20260904141030 | 65 | 241 | 22.0 | 30.0 | 0.00 | 0.00 | 0.02 | 91 | 1009.7 |
| 20260904140030 | 65 | 236 | 21.0 | 34.0 | 0.00 | 0.00 | 0.02 | 91 | 1009.5 |
| 20260904135030 | 65 | 236 | 26.0 | 32.0 | 0.00 | 0.00 | 0.02 | 92 | 1009.5 |
| 20260904134030 | 64 | 231 | 23.0 | 33.0 | 0.00 | 0.00 | 0.02 | 92 | 1009.2 |
| 20260904133030 | 64 | 237 | 26.0 | 33.0 | 0.00 | 0.00 | 0.02 | 92 | 1009.2 |
| 20260904132030 | 64 | 224 | 24.0 | 33.0 | 0.00 | 0.00 | 0.02 | 93 | 1009.2 |
| 20260904131030 | 64 | 234 | 24.0 | 32.0 | 0.00 | 0.00 | 0.02 | 92 | 1009.4 |
| 20260904130030 | 63 | 245 | 23.0 | 32.0 | 0.00 | 0.00 | 0.02 | 92 | 1009.1 |
| 20260904125030 | 63 | 237 | 26.0 | 34.0 | 0.00 | 0.00 | 0.02 | 93 | 1009.0 |
| 20260904124030 | 63 | 249 | 26.0 | 37.0 | 0.00 | 0.00 | 0.02 | 93 | 1008.8 |
| 20260904123030 | 63 | 243 | 24.0 | 36.0 | 0.00 | 0.00 | 0.02 | 93 | 1008.8 |
| 20260904122030 | 63 | 246 | 24.0 | 30.0 | 0.00 | 0.00 | 0.02 | 94 | 1008.9 |
| 20260904121030 | 63 | 251 | 28.0 | 38.0 | 0.00 | 0.00 | 0.02 | 93 | 1008.6 |
| 20260904120029 | 63 | 241 | 20.0 | 29.0 | 0.00 | 0.00 | 0.02 | 94 | 1008.8 |
| 20260904115030 | 64 | 251 | 21.0 | 32.0 | 0.00 | 0.00 | 0.01 | 94 | 1008.9 |
| 20260904114030 | 64 | 250 | 23.0 | 31.0 | 0.00 | 0.00 | 0.01 | 93 | 1008.5 |
| 20260904113030 | 64 | 233 | 21.0 | 29.0 | 0.00 | 0.00 | 0.00 | 93 | 1008.6 |
| 20260904112030 | 64 | 229 | 14.0 | 23.0 | 0.00 | 0.00 | 0.00 | 92 | 1008.6 |
| 20260904111030 | 63 | 219 | 13.0 | 19.0 | 0.00 | 0.00 | 0.00 | 92 | 1008.5 |
| 20260904110030 | 63 | 221 | 15.0 | 20.0 | 0.00 | 0.00 | 0.00 | 91 | 1008.6 |
| 20260904105030 | 64 | 230 | 17.0 | 24.0 | 0.00 | 0.00 | 0.00 | 90 | 1008.7 |
| 20260904104030 | 64 | 249 | 24.0 | 30.0 | 0.00 | 0.00 | 0.00 | 89 | 1008.8 |
| 20260904103029 | 65 | 260 | 31.0 | 38.0 | 0.00 | 0.00 | 0.00 | 86 | 1008.8 |
| 20260904102030 | 66 | 246 | 25.0 | 38.0 | 0.00 | 0.00 | 0.00 | 83 | 1008.6 |
| 20260904101030 | 67 | 239 | 22.0 | 30.0 | 0.00 | 0.00 | 0.00 | 84 | 1008.5 |
| 20260904100030 | 67 | 230 | 22.0 | 29.0 | 0.00 | 0.00 | 0.00 | 84 | 1008.4 |
| 20260904095030 | 67 | 247 | 23.0 | 32.0 | 0.00 | 0.00 | 0.00 | 84 | 1008.3 |
| 20260904094030 | 68 | 260 | 34.0 | 42.0 | 0.00 | 0.00 | 0.00 | 83 | 1007.8 |
| 20260904093031 | 69 | 251 | 32.0 | 42.0 | 0.00 | 0.00 | 0.00 | 85 | 1007.3 |
| 20260904092029 | 70 | 224 | 25.0 | 42.0 | 0.00 | 0.00 | 0.00 | 83 | 1007.5 |
| 20260904091030 | 70 | 229 | 25.0 | 39.0 | 0.00 | 0.00 | 0.00 | 82 | 1007.5 |
| 20260904090030 | 70 | 231 | 26.0 | 43.0 | 0.00 | 0.00 | 0.00 | 82 | 1007.5 |
| 20260904085030 | 70 | 216 | 24.0 | 37.0 | 0.00 | 0.00 | 0.00 | 82 | 1007.5 |
| 20260904084030 | 70 | 216 | 21.0 | 38.0 | 0.00 | 0.00 | 0.00 | 82 | 1007.6 |
| 20260904083030 | 70 | 224 | 22.0 | 35.0 | 0.00 | 0.00 | 0.00 | 83 | 1007.4 |
| 20260904082030 | 70 | 228 | 23.0 | 39.0 | 0.00 | 0.00 | 0.00 | 84 | 1007.6 |
| 20260904081030 | 70 | 219 | 22.0 | 38.0 | 0.00 | 0.00 | 0.00 | 84 | 1007.5 |
| 20260904080030 | 70 | 214 | 21.0 | 34.0 | 0.00 | 0.00 | 0.00 | 84 | 1007.6 |
| 20260904075029 | 70 | 211 | 22.0 | 38.0 | 0.00 | 0.00 | 0.00 | 84 | 1007.7 |
| 20260904074030 | 70 | 217 | 18.0 | 29.0 | 0.00 | 0.00 | 0.00 | 85 | 1007.9 |
| 20260904073030 | 69 | 225 | 22.0 | 36.0 | 0.00 | 0.00 | 0.00 | 85 | 1008.0 |
| 20260904072030 | 69 | 215 | 20.0 | 35.0 | 0.00 | 0.00 | 0.00 | 85 | 1008.1 |
| 20260904071030 | 69 | 209 | 17.0 | 31.0 | 0.00 | 0.00 | 0.00 | 85 | 1008.2 |
| 20260904070030 | 69 | 216 | 18.0 | 31.0 | 0.00 | 0.00 | 0.00 | 85 | 1008.4 |
| 20260904065030 | 69 | 212 | 17.0 | 28.0 | 0.00 | 0.00 | 0.00 | 86 | 1008.5 |
| 20260904064030 | 69 | 202 | 15.0 | 25.0 | 0.00 | 0.00 | 0.00 | 86 | 1008.5 |
| 20260904063030 | 69 | 223 | 16.0 | 32.0 | 0.00 | 0.00 | 0.00 | 86 | 1008.6 |
| 20260904062030 | 68 | 218 | 17.0 | 33.0 | 0.00 | 0.00 | 0.00 | 86 | 1008.7 |
| 20260904061030 | 68 | 210 | 17.0 | 30.0 | 0.00 | 0.00 | 0.00 | 87 | 1008.7 |
| 20260904060030 | 68 | 208 | 15.0 | 28.0 | 0.00 | 0.00 | 0.00 | 87 | 1009.0 |
| 20260904055030 | 68 | 217 | 15.0 | 27.0 | 0.00 | 0.00 | 0.00 | 87 | 1008.9 |
| 20260904054029 | 68 | 207 | 15.0 | 30.0 | 0.00 | 0.00 | 0.00 | 87 | 1009.0 |
| 20260904053033 | 68 | 212 | 17.0 | 30.0 | 0.00 | 0.00 | 0.00 | 87 | 1009.1 |
| 20260904052030 | 68 | 206 | 14.0 | 24.0 | 0.00 | 0.00 | 0.00 | 88 | 1009.4 |
| 20260904051030 | 68 | 200 | 12.0 | 21.0 | 0.00 | 0.00 | 0.00 | 88 | 1009.4 |
| 20260904050030 | 68 | 209 | 14.0 | 25.0 | 0.00 | 0.00 | 0.00 | 88 | 1009.5 |
| 20260904045030 | 68 | 208 | 13.0 | 24.0 | 0.00 | 0.00 | 0.00 | 89 | 1009.8 |
| 20260904044030 | 68 | 205 | 13.0 | 24.0 | 0.00 | 0.00 | 0.00 | 89 | 1009.9 |
| 20260904043030 | 68 | 206 | 10.0 | 21.0 | 0.00 | 0.00 | 0.00 | 89 | 1010.1 |
| 20260904042030 | 68 | 209 | 10.0 | 19.0 | 0.00 | 0.00 | 0.00 | 89 | 1010.1 |
| 20260904041029 | 68 | 209 | 11.0 | 19.0 | 0.00 | 0.00 | 0.00 | 89 | 1010.3 |
| 20260904040030 | 68 | 211 | 11.0 | 24.0 | 0.00 | 0.00 | 0.00 | 90 | 1010.5 |
| 20260904035030 | 68 | 210 | 13.0 | 23.0 | 0.00 | 0.00 | 0.00 | 90 | 1010.5 |
| 20260904034030 | 67 | 213 | 12.0 | 19.0 | 0.00 | 0.00 | 0.00 | 90 | 1010.7 |
| 20260904033030 | 67 | 210 | 11.0 | 19.0 | 0.00 | 0.00 | 0.00 | 91 | 1010.7 |
| 20260904032030 | 67 | 199 | 9.0 | 18.0 | 0.00 | 0.00 | 0.00 | 91 | 1010.7 |
| 20260904031029 | 67 | 213 | 9.0 | 17.0 | 0.00 | 0.00 | 0.00 | 91 | 1010.9 |
| 20260904030030 | 67 | 196 | 9.0 | 16.0 | 0.00 | 0.00 | 0.00 | 91 | 1011.1 |
| 20260904025030 | 67 | 195 | 8.0 | 17.0 | 0.00 | 0.00 | 0.00 | 91 | 1011.1 |
| 20260904024030 | 67 | 190 | 8.0 | 14.0 | 0.00 | 0.00 | 0.00 | 91 | 1011.2 |
| 20260904023030 | 68 | 205 | 8.0 | 15.0 | 0.00 | 0.00 | 0.00 | 91 | 1011.3 |
| 20260904022030 | 68 | 197 | 7.0 | 15.0 | 0.00 | 0.00 | 0.00 | 90 | 1011.4 |
| 20260904021030 | 68 | 202 | 9.0 | 15.0 | 0.00 | 0.00 | 0.00 | 90 | 1011.6 |
| 20260904020030 | 68 | 177 | 7.0 | 15.0 | 0.00 | 0.00 | 0.00 | 90 | 1011.8 |
| 20260904015030 | 68 | 204 | 10.0 | 17.0 | 0.00 | 0.00 | 0.00 | 90 | 1011.9 |
| 20260904014030 | 68 | 202 | 11.0 | 20.0 | 0.00 | 0.00 | 0.00 | 90 | 1011.9 |
| 20260904013030 | 68 | 211 | 11.0 | 18.0 | 0.00 | 0.00 | 0.00 | 90 | 1012.1 |
| 20260904012030 | 68 | 200 | 11.0 | 20.0 | 0.00 | 0.00 | 0.00 | 90 | 1012.2 |
| 20260904011030 | 68 | 210 | 13.0 | 22.0 | 0.00 | 0.00 | 0.00 | 90 | 1012.4 |
| 20260904010031 | 68 | 205 | 11.0 | 21.0 | 0.00 | 0.00 | 0.00 | 90 | 1012.5 |
| 20260904005030 | 68 | 207 | 12.0 | 19.0 | 0.00 | 0.00 | 0.00 | 90 | 1012.7 |
| 20260904004029 | 68 | 210 | 11.0 | 19.0 | 0.00 | 0.00 | 0.00 | 90 | 1012.7 |
| 20260904003030 | 68 | 197 | 11.0 | 19.0 | 0.00 | 0.00 | 0.00 | 90 | 1012.8 |
| 20260904002030 | 68 | 203 | 10.0 | 16.0 | 0.00 | 0.00 | 0.00 | 90 | 1012.8 |
| 20260904001030 | 68 | 202 | 11.0 | 18.0 | 0.00 | 0.00 | 0.00 | 90 | 1012.9 |
| 20260904000030 | 68 | 199 | 9.0 | 18.0 | 0.00 | 0.00 | 0.00 | 91 | 1012.9 |
| 20260903235029 | 68 | 201 | 9.0 | 17.0 | 0.00 | 0.00 | 0.00 | 91 | 1012.9 |
| 20260903234030 | 68 | 200 | 10.0 | 20.0 | 0.00 | 0.00 | 0.00 | 91 | 1013.1 |
| 20260903233030 | 68 | 207 | 9.0 | 18.0 | 0.00 | 0.00 | 0.00 | 91 | 1013.2 |
| 20260903232030 | 67 | 191 | 8.0 | 14.0 | 0.00 | 0.00 | 0.00 | 91 | 1013.4 |
| 20260903231029 | 67 | 194 | 9.0 | 17.0 | 0.00 | 0.00 | 0.00 | 91 | 1013.5 |
| 20260903230030 | 67 | 202 | 8.0 | 17.0 | 0.00 | 0.00 | 0.00 | 91 | 1013.6 |